Location: Graystone
(33.9262°N, 86.5083°W)
Time: 04:50:40
(UTC+00:00)

Daily predictions for brighter satellites

Satellite Brightness Start Highest point End
(mag) Time Altitude Azimuth Time Altitude Azimuth Time Altitude Azimuth
COSMOS 2487 4.4 00:00:03 10° NW 00:03:09 32° WSW 00:06:14 10° SSW
Okean O Rocket 3.9 00:01:02 10° SSW 00:04:49 28° W 00:08:35 10° NW
SeaSat 1 4.1 00:11:24 15° NE 00:11:24 15° NE 00:13:38 10° NNE
YAOGAN 1 2.8 00:09:47 10° SE 00:13:52 43° ENE 00:17:58 10° N
Cosmos 2219 3.6 00:08:27 10° N 00:13:52 41° ENE 00:17:55 17° SE
Aureole 3 3.5 00:10:58 10° SSW 00:14:28 56° W 00:17:30 10° N
S3M 4.0 00:13:11 10° SSE 00:19:06 56° E 00:25:05 10° NNE
Cosmos 1812 Rocket 4.4 00:17:00 10° SSE 00:20:07 30° ESE 00:20:07 30° ESE
CZ-2C R/B 3.3 00:17:32 10° SSE 00:23:13 59° ENE 00:28:51 10° N
Cosmos 1315 Rocket 3.0 00:20:23 10° SSE 00:24:07 45° E 00:24:27 43° ENE
Cosmos 1892 2.8 00:21:49 10° N 00:25:35 49° E 00:26:13 44° ESE
CZ-2D R/B 3.4 00:22:55 10° S 00:26:44 72° W 00:30:32 10° NNW
Cosmos 968 Rocket 3.9 00:23:08 10° N 00:27:56 36° ENE 00:28:17 36° ENE
Hubble Space Telescope 3.4 00:26:45 10° SW 00:28:29 12° SSW 00:30:12 10° S
Cosmos 2369 3.8 00:23:31 10° S 00:29:01 52° ESE 00:32:23 23° NE
Delta 2 Rocket 4.0 00:23:50 10° WNW 00:29:13 88° NNE 00:31:32 37° E
NOAA 15 4.5 00:25:13 10° SSE 00:30:29 72° ENE 00:35:47 10° N
Cosmos 1417 Rocket 4.5 00:24:39 10° S 00:30:52 89° W 00:37:12 10° N
Atlas Centaur 2 3.3 00:22:53 10° WSW 00:31:11 58° SSE 00:35:21 31° ESE
Timation 2 Rocket 4.1 00:24:30 10° NNW 00:31:13 87° ENE 00:38:05 10° SSE
Meteor 2-10 Rocket 3.4 00:26:53 10° S 00:32:19 78° E 00:37:33 10° N
CRYOSAT 2 4.3 00:29:50 10° NNE 00:34:39 62° E 00:39:27 10° S
Okean-O 2.7 00:30:38 10° S 00:35:02 78° WSW 00:39:29 10° NNW
ARGOS 3.7 00:36:35 37° ENE 00:36:35 37° ENE 00:41:08 10° N
NOSS 3-3 (A) 3.7 00:31:45 10° SSW 00:37:21 87° ESE 00:41:50 19° NNE
NOSS 3-3 (C) 3.7 00:31:48 10° SSW 00:37:28 87° ESE 00:41:57 20° NNE
Cosmos 1486 Rocket 4.1 00:35:09 10° N 00:40:21 51° ENE 00:41:02 48° E
Meteor 2-1 Rocket 4.0 00:35:01 10° S 00:40:31 80° E 00:46:03 10° N
SJ-11-01 4.1 00:46:21 61° ESE 00:46:52 68° ENE 00:51:31 10° N
MOS 1 Rocket 3.5 00:44:57 10° N 00:49:40 75° WNW 00:54:40 10° SSW
Cosmos 2227 Rocket 2.1 00:44:42 10° NNW 00:50:19 64° ENE 00:51:12 56° ESE
CSL-04 Rocket 3.6 00:46:02 12° SSE 00:51:08 74° ENE 00:56:40 10° N
SL-08 ROCKET BODY 4.5 00:49:58 10° N 00:56:07 81° W 01:02:16 10° S
GEOS 3 Rocket 3.9 00:57:17 52° NE 00:57:17 52° NE 01:02:06 10° NNW
OAO 3 Rocket 3.3 00:56:30 10° W 01:01:04 64° SSW 01:01:04 64° SSW
Cosmos 1697 Rocket 3.0 00:56:40 10° SSW 01:02:13 66° WNW 01:05:59 21° N
H-2A R/B 2.2 01:03:04 21° S 01:06:48 79° WSW 01:12:15 10° NNW
OAO 1 Rocket 4.4 01:02:48 10° W 01:07:59 81° NW 01:07:59 81° NW
ASTRO E2 4.4 01:09:15 10° WSW 01:11:21 29° WSW 01:11:21 29° WSW
Cosmos 1455 4.3 01:17:18 10° SW 01:19:52 25° W 01:19:52 25° W
CZ-4 R/B 4.0 01:21:14 10° SW 01:23:58 18° W 01:26:42 10° NW
Cosmos 1980 Rocket 2.8 01:18:24 10° SSW 01:22:19 47° SSW 01:22:19 47° SSW
Cosmos 2297 Rocket 3.2 01:25:01 10° NW 01:30:21 44° WSW 01:32:04 34° SSW
Milstar 3 3.1 01:28:31 10° W 01:34:44 55° S 01:34:44 55° S
Atlas Centaur 2 3.9 02:12:27 10° W 02:17:56 43° WSW 02:17:56 43° WSW
CENTAUR R/B 4.0 08:57:17 29° NE 08:57:17 29° NE 09:00:23 10° NNE
Cosmos 1833 Rocket 4.3 09:08:56 28° ESE 09:09:55 30° ESE 09:14:47 10° NE
H-2A R/B 4.4 09:19:12 10° SE 09:20:50 20° ESE 09:20:50 20° ESE
Cosmos 2344 4.3 09:27:00 37° NNW 09:27:00 37° NNW 09:32:17 10° NNE
Cosmos 2082 Rocket 4.3 09:24:41 10° SSE 09:29:01 23° ESE 09:33:23 10° NE
ATLAS 3B R/B 3.3 09:36:11 22° S 09:40:13 50° ESE 09:46:32 10° NE
EPKM 4.3 09:43:42 40° S 09:45:03 45° SSE 10:02:35 10° E
COSMOS 2406 3.1 09:48:10 83° N 09:48:10 83° N 09:53:37 10° NNE
Cosmos 2279 Rocket 3.8 09:46:16 10° N 09:52:29 90° SSW 09:58:40 10° S
ADEOS Rocket 2.7 09:52:22 10° SSE 09:57:54 83° ENE 10:03:25 10° N
Cosmos 292 Rocket 3.8 09:57:37 64° N 09:58:19 78° ENE 10:03:09 10° SSE
Cosmos 1697 Rocket 4.5 09:54:38 10° N 09:59:32 29° ENE 10:04:25 10° ESE
ERS-2 3.6 09:59:29 10° SE 10:02:49 35° ENE 10:05:48 12° N
BREEZE-M DEB (TANK) 3.9 10:04:39 21° NE 10:04:39 21° NE 10:05:51 10° ENE
NOSS 3-3 (C) 4.5 10:00:14 24° NW 10:05:28 82° WSW 10:13:56 10° SSE
Cosmos 44 Rocket 4.3 10:04:23 18° N 10:08:03 48° ENE 10:13:02 10° SE
Cosmos 1908 3.5 10:08:35 44° NNE 10:09:39 69° E 10:13:32 10° SSE
Cosmos 1461 3.0 10:10:10 65° SSW 10:10:49 87° ESE 10:15:27 10° NNE
CBERS 1 LM4 rocket 4.2 10:08:31 10° N 10:13:21 68° WNW 10:14:27 50° SW
FENGYUN 3A 3.9 10:09:06 10° NNE 10:14:32 71° ESE 10:19:56 10° S
Cosmos 2251 Rocket 4.3 10:09:45 10° S 10:14:57 53° ESE 10:20:09 10° NNE
SL-14 R/B 4.1 10:11:32 10° S 10:15:21 51° E 10:19:14 10° NNE
ISS -1.6 10:19:03 18° N 10:19:03 18° N 10:20:17 10° NNE
USA 290 3.3 10:18:28 21° SSE 10:20:17 44° ESE 10:23:23 10° NNE
Cosmos 1980 Rocket 4.4 10:16:58 10° N 10:21:22 23° ENE 10:25:44 10° ESE
DELTA 2 R/B (1) 3.5 10:24:50 39° WNW 10:27:02 86° NNE 10:32:40 10° ESE
CZ-2C R/B 2.5 10:30:29 20° S 10:30:29 20° S 10:32:19 10° SSE
Cosmos 1331 Rocket 4.5 10:30:15 36° WSW 10:30:15 36° WSW 10:34:55 10° SSW
Lacrosse 4 Rocket 3.7 10:33:26 11° NNW 10:33:26 11° NNW 10:33:41 10° NNW
ALOS 2.1 10:30:47 10° N 10:35:26 70° WNW 10:40:04 10° SSW
Cosmos 1626 2.1 10:36:04 10° SSW 10:39:40 53° W 10:43:17 10° N
Cosmos 1484 Rocket 2.8 10:37:45 10° N 10:41:29 51° WNW 10:45:09 10° SSW
CENTAUR R/B 3.9 10:44:29 17° NW 10:45:27 18° NW 10:49:55 10° N
CZ-2C R/B 3.8 10:42:20 10° NNW 10:44:45 19° NW 10:44:45 19° NW
Cosmos 2228 3.0 10:46:26 10° N 10:50:48 88° W 10:55:11 10° S
Cosmos 1092 Rocket 3.9 10:45:23 10° S 10:51:30 76° W 10:57:43 10° N
CZ-4B R/B 3.2 10:47:25 10° NNE 10:51:31 74° E 10:55:47 10° S
Cosmos 1833 Rocket 3.4 10:50:45 19° WSW 10:53:43 31° WNW 10:58:41 10° N
Cosmos 1606 Rocket 3.5 10:49:28 10° N 10:53:56 86° W 10:58:24 10° S
ADEOS 3.9 10:49:31 10° N 10:54:25 43° WNW 10:59:19 10° SW
COSMO-SKYMED 1 3.2 10:50:41 10° SSE 10:54:55 58° ENE 10:59:11 10° N
Nadezhda 4 Rocket 4.4 10:52:08 10° SW 10:57:44 38° WNW 11:03:24 10° N
Lacrosse 5 rocket 3.0 10:58:35 14° NW 10:58:38 14° NW 11:00:44 10° N
Geosat 4.1 10:54:13 10° S 10:59:07 57° WSW 11:04:04 10° NNW
H-2A R/B 3.8 10:56:14 10° SW 10:57:55 16° WSW 10:57:55 16° WSW
Cosmos 1302 Rocket 4.4 10:55:20 10° NNW 11:00:14 39° W 11:05:05 10° SSW
Meteor 1-24 Rocket 3.7 10:54:58 10° SSW 11:00:25 61° W 11:06:06 10° N
ATLAS CENTAUR R/B 3.9 10:58:56 10° SSE 11:02:08 23° ESE 11:05:14 10° ENE
CZ-3 R/B 3.1 10:42:22 16° WSW 11:02:23 66° S 11:08:54 10° ESE
Meteor 1-31 Rocket 3.3 11:01:58 10° N 11:05:35 35° WNW 11:09:10 10° SW
Meteor PRIRODA 3.5 11:04:38 10° N 11:08:18 77° WNW 11:11:57 10° SSW
CZ-4B R/B 2.3 11:06:45 10° SSW 11:09:50 30° W 11:12:56 10° NW
Cosmos 2369 3.6 11:06:00 10° NNW 11:11:40 77° WSW 11:17:16 10° SSE
Cosmos 2082 Rocket 2.6 11:07:37 10° SW 11:12:48 38° WNW 11:18:01 10° N
Okean 1-7 Rocket 3.6 11:09:10 10° S 11:13:42 74° W 11:18:15 10° N
OE (NEXTSAT) 4.3 11:14:32 10° SW 11:18:00 89° SE 11:21:30 10° NE
PSLV R/B 4.5 11:14:15 10° NNE 11:18:20 64° E 11:22:22 10° S
Cosmos 220 Rocket 4.2 11:18:02 10° NNW 11:22:22 54° WSW 11:26:39 10° S
Cosmos 2058 Rocket 3.1 11:19:58 10° N 11:24:28 83° W 11:28:55 10° S
Gblst 52 Del rocket 4.3 11:19:16 10° SW 11:24:51 89° NW 11:31:04 10° NE
Cosmos 1892 Rocket 4.3 11:25:41 10° SW 11:29:30 31° WNW 11:33:23 10° NNW
ATLAS 3B R/B 3.5 11:25:36 10° WSW 11:31:06 28° NW 11:36:40 10° N
Cosmos 2084 4.3 11:28:02 10° WSW 11:31:53 31° NW 11:35:48 10° N
Spot 2 4.3 11:27:18 10° N 11:31:54 80° WNW 11:36:46 10° SSW
Cosmos 1400 Rocket 3.1 11:30:24 10° NNW 11:34:08 43° W 11:37:48 10° SSW
ERS-2 4.1 11:35:45 10° WSW 11:36:27 10° W 11:37:10 10° W
YAOGAN 6 3.4 11:34:04 10° NNE 11:37:42 59° E 11:41:17 10° S
H-2A R/B 2.5 11:36:14 10° NNE 11:40:35 87° WNW 11:44:45 10° SSW
Cosmos 1992 Rocket 4.4 11:35:56 10° NNW 11:40:50 43° WSW 11:45:43 10° S
Meteor 1-21 Rocket 4.4 11:36:33 10° S 11:42:18 86° E 11:48:11 10° N
